FIN1442 EGCC-ENCN

Flight info

Callsign FIN1442
Flight time 1h 7m
Altitude 40000
Route POL4S POL UP17 DIGBI P15 GIVEM DCT REKNA DCT VAXIT DCT LANTI LANTI7M
Aircraft A20N/M-SDE2E3FGHIRWXY/LB1

Departure

Time 2026-05-05 16:12
Airport Manchester Airport (EGCC)

Arrival

Time 2026-05-05 17:19
Airport Kristiansand Airport (ENCN)
Time Latitude Longitude Altitude Speed Heading
2026-05-05 15:51 53.35843 -2.27416 243 ft 0 kts 285°
2026-05-05 16:04 53.35839 -2.27390 243 ft 6 kts 285°
2026-05-05 16:04 53.35829 -2.27325 244 ft 1 kts 227°
2026-05-05 16:04 53.35834 -2.27317 244 ft 0 kts 185°
2026-05-05 16:07 53.35788 -2.27346 243 ft 18 kts 210°
2026-05-05 16:07 53.35710 -2.27476 241 ft 14 kts 229°
2026-05-05 16:07 53.35653 -2.27598 240 ft 12 kts 230°
2026-05-05 16:07 53.35584 -2.27717 239 ft 17 kts 224°
2026-05-05 16:08 53.35507 -2.27839 237 ft 13 kts 224°
2026-05-05 16:08 53.35449 -2.27934 237 ft 10 kts 224°
2026-05-05 16:08 53.35408 -2.28002 238 ft 7 kts 224°
2026-05-05 16:08 53.35370 -2.28062 238 ft 22 kts 223°
2026-05-05 16:09 53.35225 -2.28310 231 ft 28 kts 231°
2026-05-05 16:09 53.35110 -2.28549 228 ft 25 kts 231°
2026-05-05 16:09 53.35000 -2.28761 225 ft 25 kts 225°
2026-05-05 16:09 53.34862 -2.29012 222 ft 28 kts 228°
2026-05-05 16:10 53.34742 -2.29245 218 ft 25 kts 229°
2026-05-05 16:10 53.34687 -2.29317 219 ft 2 kts 206°
2026-05-05 16:10 53.34685 -2.29319 217 ft 0 kts 204°
2026-05-05 16:11 53.34554 -2.29298 219 ft 30 kts 133°
2026-05-05 16:11 53.35597 -2.27003 529 ft 176 kts 52°
2026-05-05 16:12 53.36336 -2.25382 1947 ft 175 kts 51°
2026-05-05 16:12 53.37893 -2.21958 4115 ft 201 kts 51°
2026-05-05 16:13 53.40877 -2.15898 7521 ft 239 kts 42°
2026-05-05 16:13 53.42268 -2.14324 8742 ft 246 kts 27°
2026-05-05 16:13 53.43846 -2.12989 9724 ft 261 kts 21°
2026-05-05 16:14 53.47583 -2.11086 11404 ft 297 kts
2026-05-05 16:14 53.51888 -2.10191 13211 ft 326 kts
2026-05-05 16:15 53.56618 -2.09970 14801 ft 356 kts 358°
2026-05-05 16:15 53.61749 -2.10026 16225 ft 386 kts 357°
2026-05-05 16:16 53.67328 -2.10150 17485 ft 416 kts 357°
2026-05-05 16:16 53.73376 -2.09356 18327 ft 456 kts 19°
2026-05-05 16:17 53.78419 -2.02640 19890 ft 470 kts 47°
2026-05-05 16:17 53.80539 -1.98418 20847 ft 470 kts 49°
2026-05-05 16:18 53.84633 -1.89838 22866 ft 467 kts 50°
2026-05-05 16:18 53.86006 -1.86933 23523 ft 468 kts 51°
2026-05-05 16:18 53.90069 -1.77955 24206 ft 490 kts 52°
2026-05-05 16:19 53.92103 -1.73357 25054 ft 486 kts 52°
2026-05-05 16:19 53.94097 -1.68826 25917 ft 484 kts 53°
2026-05-05 16:19 53.98114 -1.59660 27644 ft 479 kts 53°
2026-05-05 16:20 54.02040 -1.50684 29357 ft 474 kts 53°
2026-05-05 16:20 54.05961 -1.41710 30841 ft 472 kts 53°
2026-05-05 16:21 54.09906 -1.32655 31862 ft 476 kts 53°
2026-05-05 16:22 54.15786 -1.19118 33858 ft 472 kts 53°
2026-05-05 16:22 54.19684 -1.10112 34893 ft 471 kts 53°
2026-05-05 16:23 54.23577 -1.01091 35844 ft 472 kts 53°
2026-05-05 16:23 54.25523 -0.96573 36326 ft 472 kts 53°
2026-05-05 16:23 54.29410 -0.87527 37238 ft 472 kts 53°
2026-05-05 16:24 54.31354 -0.82993 37699 ft 472 kts 53°
2026-05-05 16:24 54.33299 -0.78451 38182 ft 472 kts 53°
2026-05-05 16:24 54.37158 -0.69409 38845 ft 465 kts 53°
2026-05-05 16:25 54.39069 -0.64921 38936 ft 467 kts 53°
2026-05-05 16:25 54.44882 -0.51231 39006 ft 475 kts 53°
2026-05-05 16:26 54.52578 -0.32980 39010 ft 471 kts 53°
2026-05-05 16:27 54.56419 -0.23821 39014 ft 472 kts 53°
2026-05-05 16:27 54.60259 -0.14630 39012 ft 472 kts 53°
2026-05-05 16:28 54.64086 -0.05435 39010 ft 471 kts 53°
2026-05-05 16:28 54.67880 0.03719 39009 ft 472 kts 53°
2026-05-05 16:29 54.71705 0.12978 39008 ft 473 kts 53°
2026-05-05 16:29 54.75520 0.22247 39003 ft 473 kts 53°
2026-05-05 16:30 54.79324 0.31525 39005 ft 472 kts 53°
2026-05-05 16:30 54.83130 0.40842 39004 ft 474 kts 54°
2026-05-05 16:31 54.86934 0.50193 39001 ft 474 kts 54°
2026-05-05 16:31 54.90727 0.59548 38999 ft 474 kts 54°
2026-05-05 16:32 54.94512 0.68923 38996 ft 474 kts 54°
2026-05-05 16:32 54.98294 0.78325 38996 ft 474 kts 54°
2026-05-05 16:33 55.02072 0.87755 38996 ft 474 kts 54°
2026-05-05 16:33 55.05839 0.97194 38995 ft 474 kts 54°
2026-05-05 16:34 55.09595 1.06639 38994 ft 474 kts 54°
2026-05-05 16:34 55.13351 1.16118 38992 ft 475 kts 54°
2026-05-05 16:35 55.17103 1.25627 38991 ft 475 kts 54°
2026-05-05 16:35 55.20851 1.35163 38987 ft 475 kts 54°
2026-05-05 16:36 55.24586 1.44704 38989 ft 475 kts 54°
2026-05-05 16:36 55.28317 1.54272 38986 ft 476 kts 54°
2026-05-05 16:37 55.32044 1.63867 38990 ft 476 kts 54°
2026-05-05 16:37 55.35767 1.73484 38986 ft 476 kts 54°
2026-05-05 16:38 55.39482 1.83123 38985 ft 476 kts 54°
2026-05-05 16:38 55.43165 1.92717 38984 ft 477 kts 54°
2026-05-05 16:39 55.46877 2.02421 38986 ft 477 kts 54°
2026-05-05 16:39 55.50575 2.12128 38980 ft 477 kts 54°
2026-05-05 16:40 55.54265 2.21853 38983 ft 477 kts 54°
2026-05-05 16:40 55.57953 2.31614 38982 ft 478 kts 55°
2026-05-05 16:41 55.61706 2.41578 38987 ft 497 kts 55°
2026-05-05 16:41 55.65542 2.51808 39009 ft 487 kts 55°
2026-05-05 16:42 55.69342 2.61992 38994 ft 496 kts 55°
2026-05-05 16:42 55.71200 2.66993 38991 ft 476 kts 55°
2026-05-05 16:42 55.73006 2.71862 38986 ft 470 kts 55°
2026-05-05 16:43 55.76614 2.81610 38990 ft 477 kts 55°
2026-05-05 16:43 55.80276 2.91539 38986 ft 482 kts 55°
2026-05-05 16:44 55.83939 3.01510 38988 ft 479 kts 55°
2026-05-05 16:44 55.87592 3.11498 38988 ft 486 kts 55°
2026-05-05 16:45 55.91292 3.21652 38979 ft 488 kts 55°
2026-05-05 16:45 55.94966 3.31781 38974 ft 485 kts 55°
2026-05-05 16:46 55.98625 3.41916 38972 ft 486 kts 55°
2026-05-05 16:46 56.02290 3.52101 38967 ft 488 kts 55°
2026-05-05 16:47 56.05948 3.62314 38971 ft 487 kts 55°
2026-05-05 16:47 56.09598 3.72550 38977 ft 488 kts 56°
2026-05-05 16:48 56.13244 3.82814 38988 ft 489 kts 56°
2026-05-05 16:48 56.16893 3.93133 38995 ft 490 kts 56°
2026-05-05 16:49 56.20531 4.03467 39001 ft 489 kts 56°
2026-05-05 16:49 56.24138 4.13756 39002 ft 490 kts 56°
2026-05-05 16:50 56.27767 4.24150 39007 ft 491 kts 56°
2026-05-05 16:50 56.31390 4.34571 39001 ft 490 kts 56°
2026-05-05 16:51 56.35000 4.45004 39005 ft 490 kts 56°
2026-05-05 16:51 56.38605 4.55463 39005 ft 492 kts 56°
2026-05-05 16:52 56.42211 4.65976 39010 ft 492 kts 56°
2026-05-05 16:52 56.45802 4.76496 39010 ft 492 kts 56°
2026-05-05 16:53 56.49386 4.87050 39011 ft 493 kts 56°
2026-05-05 16:53 56.52967 4.97644 39012 ft 494 kts 55°
2026-05-05 16:54 56.55106 5.02422 39036 ft 485 kts 36°
2026-05-05 16:54 56.57806 5.06027 39030 ft 482 kts 30°
2026-05-05 16:54 56.63266 5.13139 39034 ft 489 kts 45°
2026-05-05 16:55 56.67502 5.22906 39016 ft 493 kts 51°
2026-05-05 16:55 56.71534 5.32996 39004 ft 493 kts 51°
2026-05-05 16:56 56.75562 5.43094 39008 ft 492 kts 51°
2026-05-05 16:56 56.79618 5.53153 39012 ft 493 kts 51°
2026-05-05 16:57 56.83717 5.63218 39012 ft 494 kts 50°
2026-05-05 16:57 56.87829 5.73251 39015 ft 493 kts 50°
2026-05-05 16:58 56.91928 5.83213 39006 ft 493 kts 50°
2026-05-05 16:58 56.96110 5.93284 39007 ft 494 kts 50°
2026-05-05 16:59 57.00255 6.03265 39008 ft 496 kts 50°
2026-05-05 16:59 57.04747 6.12756 38948 ft 491 kts 40°
2026-05-05 17:00 57.07236 6.17060 38521 ft 493 kts 39°
2026-05-05 17:00 57.09774 6.21327 37771 ft 488 kts 38°
2026-05-05 17:00 57.12209 6.25406 37064 ft 462 kts 38°
2026-05-05 17:00 57.14576 6.29355 36377 ft 459 kts 38°
2026-05-05 17:01 57.16947 6.33305 35700 ft 460 kts 38°
2026-05-05 17:01 57.19329 6.37281 34989 ft 463 kts 38°
2026-05-05 17:01 57.21713 6.41280 34296 ft 464 kts 38°
2026-05-05 17:01 57.24098 6.45301 33535 ft 464 kts 38°
2026-05-05 17:02 57.26469 6.49323 32749 ft 463 kts 38°
2026-05-05 17:02 57.28846 6.53372 31989 ft 465 kts 38°
2026-05-05 17:02 57.31222 6.57437 31255 ft 467 kts 38°
2026-05-05 17:02 57.33610 6.61539 30517 ft 468 kts 39°
2026-05-05 17:03 57.35946 6.65577 29750 ft 452 kts 39°
2026-05-05 17:03 57.38236 6.69549 28664 ft 453 kts 39°
2026-05-05 17:03 57.40566 6.73587 27310 ft 461 kts 39°
2026-05-05 17:03 57.42917 6.77669 26032 ft 464 kts 39°
2026-05-05 17:04 57.45265 6.81760 24805 ft 461 kts 39°
2026-05-05 17:04 57.47582 6.85814 23633 ft 455 kts 39°
2026-05-05 17:04 57.49879 6.89849 22192 ft 455 kts 39°
2026-05-05 17:04 57.52176 6.93896 20920 ft 454 kts 39°
2026-05-05 17:05 57.54456 6.97927 20068 ft 453 kts 39°
2026-05-05 17:05 57.56734 7.01965 18644 ft 443 kts 38°
2026-05-05 17:05 57.58898 7.05828 17130 ft 417 kts 38°
2026-05-05 17:05 57.60920 7.09442 15658 ft 391 kts 38°
2026-05-05 17:06 57.62170 7.11681 14660 ft 359 kts 38°
2026-05-05 17:06 57.63867 7.14737 13144 ft 322 kts 38°
2026-05-05 17:06 57.65421 7.17528 11580 ft 301 kts 38°
2026-05-05 17:06 57.66895 7.20163 10170 ft 289 kts 38°
2026-05-05 17:07 57.68330 7.22703 8690 ft 278 kts 38°
2026-05-05 17:07 57.69701 7.25123 7589 ft 258 kts 38°
2026-05-05 17:07 57.71011 7.27437 6345 ft 267 kts 39°
2026-05-05 17:07 57.72313 7.29739 5637 ft 245 kts 39°
2026-05-05 17:08 57.73530 7.31918 5301 ft 243 kts 39°
2026-05-05 17:08 57.74755 7.34114 5145 ft 244 kts 39°
2026-05-05 17:08 57.75989 7.36321 5093 ft 252 kts 39°
2026-05-05 17:08 57.77293 7.38642 5050 ft 261 kts 39°
2026-05-05 17:09 57.78600 7.40983 5031 ft 260 kts 39°
2026-05-05 17:09 57.79768 7.43575 5045 ft 267 kts 63°
2026-05-05 17:09 57.80467 7.46828 5041 ft 268 kts 53°
2026-05-05 17:09 57.81717 7.49296 5017 ft 261 kts 32°
2026-05-05 17:10 57.83150 7.51319 4775 ft 254 kts 31°
2026-05-05 17:10 57.84565 7.53295 3862 ft 260 kts 31°
2026-05-05 17:10 57.85888 7.55240 3563 ft 221 kts 34°
2026-05-05 17:10 57.87026 7.57204 3312 ft 224 kts 38°
2026-05-05 17:11 57.88110 7.59229 3140 ft 215 kts 39°
2026-05-05 17:11 57.89140 7.61204 3060 ft 210 kts 39°
2026-05-05 17:11 57.90135 7.63123 3043 ft 202 kts 38°
2026-05-05 17:11 57.91128 7.65010 3022 ft 206 kts 38°
2026-05-05 17:12 57.92163 7.66918 3001 ft 207 kts 37°
2026-05-05 17:12 57.93210 7.68816 3002 ft 209 kts 37°
2026-05-05 17:12 57.94266 7.70688 3004 ft 208 kts 36°
2026-05-05 17:12 57.95326 7.72526 3001 ft 206 kts 36°
2026-05-05 17:13 57.96402 7.74371 2817 ft 211 kts 36°
2026-05-05 17:13 57.97469 7.76200 2632 ft 207 kts 35°
2026-05-05 17:13 57.98540 7.78015 2558 ft 205 kts 34°
2026-05-05 17:13 57.99593 7.79780 2518 ft 202 kts 35°
2026-05-05 17:14 58.00660 7.81552 2508 ft 202 kts 35°
2026-05-05 17:14 58.01720 7.83291 2499 ft 202 kts 34°
2026-05-05 17:14 58.02778 7.84990 2499 ft 199 kts 33°
2026-05-05 17:14 58.03862 7.86617 2495 ft 197 kts 31°
2026-05-05 17:15 58.04951 7.88150 2498 ft 187 kts 29°
2026-05-05 17:15 58.06015 7.89581 2493 ft 189 kts 27°
2026-05-05 17:15 58.07096 7.90984 2485 ft 188 kts 27°
2026-05-05 17:15 58.08186 7.92379 2489 ft 189 kts 28°
2026-05-05 17:16 58.09270 7.93785 2500 ft 191 kts 28°
2026-05-05 17:16 58.10364 7.95220 2503 ft 191 kts 28°
2026-05-05 17:16 58.11460 7.96668 2513 ft 192 kts 28°
2026-05-05 17:16 58.12560 7.98134 2203 ft 188 kts 28°
2026-05-05 17:17 58.13504 7.99405 1906 ft 152 kts 28°
2026-05-05 17:17 58.14373 8.00558 1664 ft 153 kts 29°
2026-05-05 17:17 58.15195 8.01804 1370 ft 148 kts 32°
2026-05-05 17:17 58.16007 8.02947 1050 ft 150 kts 27°
2026-05-05 17:18 58.16878 8.04024 802 ft 145 kts 27°
2026-05-05 17:18 58.17724 8.04984 587 ft 141 kts 28°
2026-05-05 17:18 58.18539 8.06039 430 ft 142 kts 31°
2026-05-05 17:18 58.19316 8.07072 206 ft 132 kts 33°
2026-05-05 17:19 58.20091 8.08068 60 ft 135 kts 34°
2026-05-05 17:19 58.20671 8.08829 51 ft 57 kts 35°
2026-05-05 17:19 58.20843 8.09062 59 ft 28 kts 36°